Location: Forst
(46.9333°N, 15.4333°E)
Time: 06:59:26
(UTC+00:00)

Lacrosse 5 rocket - Pass Details

Date: 19 April 2021
Orbit: 460 x 634 km, 57.0° (Epoch: 12 May)

Event Time Altitude Azimuth Distance (km) Brightness Sun altitude
Rises 19:20:32 0° 285° (WNW) 2,686 6.3 -14.3°
Reaches altitude 10° 19:23:06 10° 301° (WNW) 1,830 5.4 -14.6°
Maximum altitude 19:26:23 22° 353° (N) 1,273 3.7 -15.1°
Drops below altitude 10° 19:29:48 10° 45° (NE) 1,917 4.0 -15.5°
Enters shadow 19:32:29 - 60° (ENE) 2,825 4.7 -15.9°
